Winfield, KS

5:42 AM CDT on August 23, 2017 (GMT -0500)
Strother

Weather History for KWLD - December, 2011

Change the Weather History Date:

Tuesday, December 6, 2011

  Actual Average Record
Temperature  
Mean Temperature 24 °F -  
Max Temperature 30 °F 47 °F 64 °F (2001)
Min Temperature 19 °F 29 °F 8 °F (2002)
Degree Days  
Heating Degree Days 40    
Moisture  
Dew Point 17 °F    
Average Humidity 77    
Maximum Humidity 89    
Minimum Humidity 56    
Precipitation  
Precipitation 0.00 in - - ()
Sea Level Pressure  
Sea Level Pressure 30.37 in    
Wind  
Wind Speed 12 mph (NNW)    
Max Wind Speed 21 mph    
Max Gust Speed 26 mph    
Visibility 8 miles    
Events Snow    
Averages and records for this station are not official NWS values.
T = Trace of Precipitation, MM = Missing Value Source: NWS Daily Summary

Daily Weather History Graph

Daily Weather History Graph

Search for Another Location

Airport or City:

Trip Planner

Search our weather history database for the weather conditions in past years. The results will help you decide how hot, cold, wet, or windy it might be!

Date:

Astronomy

Dec. 06, 2011 Rise Set
Actual Time 7:27 AM CST 5:10 PM CST
Civil Twilight 6:58 AM CST 5:39 PM CST
Nautical Twilight 6:26 AM CST 6:11 PM CST
Astronomical Twilight 5:54 AM CST 6:43 PM CST
Moon 2:36 PM CST (12/6) 3:50 AM CST (12/6)
Length of Visible Light 10h 40m
Length of Day
9h 43m
Waxing Gibbous, 87% of the Moon is Illuminated
Dec 6
Waxing Gibbous
Dec 10
Full
Dec 17
Last Quarter
Dec 24
New
Jan 1
First Quarter

Hourly Weather History & Observations

Time (CST) Temp. Windchill Dew Point Humidity Pressure Visibility Wind Dir Wind Speed Gust Speed Precip Events Conditions
12:42 AM 24.8 °F 10.3 °F 17.6 °F 74% 30.40 in 2.5 mi North 20.7 mph 24.2 mph 0.00 in Snow Light Snow
12:49 AM 24.8 °F 12.4 °F 17.6 °F 74% 30.40 in 4.0 mi North 15.0 mph 26.5 mph 0.00 in Snow Light Snow
12:54 AM 24.1 °F 9.8 °F 18.0 °F 77% 30.44 in 3.0 mi North 19.6 mph - 0.00 in Snow Light Snow
1:17 AM 24.8 °F 11.5 °F 17.6 °F 74% 30.39 in 4.0 mi North 17.3 mph 25.3 mph 0.00 in Snow Light Snow
2:49 AM 23.0 °F 11.7 °F 19.4 °F 86% 30.38 in 2.5 mi North 11.5 mph - 0.00 in Snow Light Snow
2:54 AM 23.0 °F 12.4 °F 19.0 °F 85% 30.42 in 2.0 mi North 10.4 mph - 0.00 in Snow Light Snow
3:06 AM 23.0 °F 10.1 °F 19.4 °F 86% 30.37 in 2.0 mi North 15.0 mph - 0.00 in Snow Light Snow
3:21 AM 21.2 °F 8.9 °F 17.6 °F 86% 30.37 in 3.0 mi North 12.7 mph - 0.00 in Snow Light Snow
3:42 AM 21.2 °F 9.5 °F 17.6 °F 86% 30.37 in 4.0 mi North 11.5 mph - 0.00 in   Overcast
3:54 AM 19.9 °F 7.9 °F 17.1 °F 89% 30.41 in 6.0 mi North 11.5 mph - 0.00 in   Overcast
4:16 AM 19.4 °F 7.9 °F 15.8 °F 86% 30.36 in 8.0 mi North 10.4 mph - N/A   Scattered Clouds
4:30 AM 19.4 °F 7.2 °F 15.8 °F 86% 30.36 in 8.0 mi North 11.5 mph - N/A   Mostly Cloudy
4:40 AM 19.4 °F 6.6 °F 15.8 °F 86% 30.36 in 8.0 mi North 12.7 mph - N/A   Mostly Cloudy
4:54 AM 19.9 °F 7.9 °F 15.1 °F 81% 30.40 in 9.0 mi North 11.5 mph - N/A   Scattered Clouds
5:54 AM 19.9 °F 7.3 °F 16.0 °F 85% 30.41 in 10.0 mi North 12.7 mph - N/A   Overcast
6:54 AM 19.9 °F 7.3 °F 14.0 °F 78% 30.42 in 9.0 mi North 12.7 mph - N/A   Overcast
7:54 AM 19.9 °F 8.6 °F 15.1 °F 81% 30.43 in 8.0 mi North 10.4 mph - N/A   Overcast
8:54 AM 21.0 °F 10.6 °F 15.1 °F 78% 30.44 in 8.0 mi North 9.2 mph - N/A   Overcast
10:54 AM 21.0 °F 11.4 °F 15.1 °F 78% 30.43 in 10.0 mi North 8.1 mph - N/A   Overcast
11:54 AM 24.1 °F 18.2 °F 16.0 °F 71% 30.40 in 10.0 mi North 4.6 mph - N/A   Mostly Cloudy
12:12 PM 24.8 °F 17.9 °F 15.8 °F 69% 30.35 in 10.0 mi North 5.8 mph - N/A   Partly Cloudy
12:54 PM 27.0 °F 19.5 °F 18.0 °F 69% 30.37 in 10.0 mi NW 6.9 mph - N/A   Clear
1:54 PM 28.0 °F 20.0 °F 18.0 °F 66% 30.34 in 10.0 mi NNW 8.1 mph - N/A   Clear
2:54 PM 30.0 °F 23.2 °F 18.0 °F 61% 30.32 in 10.0 mi NW 6.9 mph - N/A   Clear
3:54 PM 30.0 °F 21.7 °F 16.0 °F 56% 30.31 in 10.0 mi NNW 9.2 mph - N/A   Clear
4:54 PM 28.0 °F 20.8 °F 16.0 °F 61% 30.31 in 10.0 mi NNW 6.9 mph - N/A   Clear
5:54 PM 25.0 °F 20.7 °F 17.1 °F 72% 30.32 in 10.0 mi WNW 3.5 mph - N/A   Clear
6:54 PM 23.0 °F 15.8 °F 16.0 °F 74% 30.32 in 10.0 mi WNW 5.8 mph - N/A   Clear
7:54 PM 21.0 °F 12.4 °F 15.1 °F 78% 30.33 in 10.0 mi NW 6.9 mph - N/A   Clear
8:54 PM 21.0 °F 14.6 °F 14.0 °F 74% 30.35 in 10.0 mi NW 4.6 mph - N/A   Clear
9:54 PM 21.9 °F - 15.1 °F 75% 30.33 in 10.0 mi Calm Calm - N/A   Clear
10:54 PM 19.9 °F 13.4 °F 15.1 °F 81% 30.34 in 10.0 mi West 4.6 mph - N/A   Clear
11:54 PM 19.9 °F - 16.0 °F 85% 30.33 in 10.0 mi Calm Calm - N/A   Clear